Lapse_Rate
2.3 2.3 2.3 2.2 2.3 2.8 3.6 3.9 4.2 4.7 5.1 5.4 5.7 5.9 5.8 6.2 6.4 5.9 6.8 7.9 9.0 9.7 8.7 5.9 6.6 6.1 6.1 5.7 5.7 4.6 6.5 6.5 6.5 6.5 6.5 6.3 6.5 7.0 7.0 5.9 6.0 6.9 6.0 6.6 6.6
2.1 2.1 2.1 2.1 2.3 2.6 3.2 3.8 4.2 4.6 5.1 5.5 5.7 5.9 6.0 5.8 5.5 5.9 8.7 9.7 9.7 9.7 6.1 6.3 6.1 5.7 5.2 6.0 5.4 6.3 6.5 6.5 6.5 6.5 6.5 6.4 6.5 6.4 6.5 6.1 5.9 6.1 5.8 6.6 7.2
2.1 2.0 1.9 2.0 2.3 2.6 3.2 3.6 4.1 4.6 4.9 5.4 5.6 5.8 5.8 5.4 6.3 6.2 8.5 9.5 9.6 8.9 6.0 6.0 6.6 6.3 6.2 5.8 6.2 6.4 6.5 6.5 6.4 6.3 6.5 6.4 6.4 6.5 6.4 6.5 5.8 6.5 6.5 6.1 7.1
2.0 1.8 1.9 2.0 2.2 2.4 3.3 3.6 4.2 4.6 4.9 5.2 5.5 5.7 5.5 5.4 6.5 6.3 8.1 8.7 8.4 7.2 5.7 6.3 6.1 6.2 6.5 6.5 6.2 6.5 6.1 6.4 6.5 6.5 6.6 6.5 6.4 6.4 5.8 6.2 6.5 6.6 6.7 6.2 7.0
2.0 1.9 1.7 1.7 2.0 2.2 3.0 3.6 4.2 4.7 4.8 5.0 5.6 5.5 5.3 3.9 5.8 7.5 7.8 5.9 4.9 4.7 5.5 6.2 6.3 6.2 6.5 6.4 6.3 6.5 6.5 6.3 6.6 6.8 6.8 6.6 6.4 6.4 6.1 6.3 6.0 6.8 7.0 6.2 7.0
1.9 1.8 1.5 1.5 1.8 2.2 2.8 3.4 4.2 4.6 4.9 5.3 5.8 5.6 5.0 6.0 7.0 6.9 5.9 4.7 4.5 4.1 5.3 5.8 6.6 6.6 6.2 6.3 6.5 5.8 6.2 6.4 6.1 6.5 6.4 6.5 6.5 6.4 5.8 5.8 5.9 6.7 6.1 6.1 6.5
1.8 1.5 1.3 1.4 1.5 2.2 2.7 3.6 3.9 4.1 4.8 5.0 5.8 5.3 5.5 6.0 6.7 5.7 6.1 4.6 4.7 4.7 5.5 6.2 6.7 6.6 6.2 6.5 6.0 5.9 6.5 6.5 6.5 6.3 6.5 6.2 6.5 6.5 5.1 5.1 5.6 6.2 6.8 5.9 6.3
1.9 1.6 1.4 1.3 1.4 2.1 2.8 3.7 4.1 4.2 4.4 4.8 5.8 5.0 5.5 6.9 6.7 5.2 3.5 3.0 4.0 4.4 5.1 6.4 6.5 6.5 6.4 5.3 5.8 6.5 6.5 6.5 6.5 6.5 6.4 6.4 6.5 6.5 7.0 6.2 6.0 6.1 6.0 6.3 5.9
1.8 1.4 1.2 1.3 1.3 1.9 2.6 3.7 4.6 4.5 5.2 5.2 5.1 5.3 5.3 5.7 5.4 4.7 4.6 3.3 2.9 4.4 5.7 7.8 5.8 5.4 5.2 6.5 6.5 6.5 6.5 6.5 6.5 6.5 6.5 6.5 6.5 6.5 7.4 7.3 6.9 6.8 6.2 6.2 6.5
1.4 1.4 1.2 1.2 1.4 1.8 2.2 3.7 4.8 4.7 4.5 5.1 4.4 5.6 4.6 5.8 5.5 5.7 4.3 3.4 4.2 4.6 5.4 5.2 3.8 6.5 6.5 6.5 6.5 6.5 6.5 6.5 6.5 6.5 6.5 6.5 6.5 6.5 7.0 7.1 6.9 7.1 7.3 7.1 6.3
1.4 1.2 1.1 1.1 1.3 1.5 1.7 2.0 3.9 4.1 2.8 5.4 6.3 6.1 6.1 5.5 5.5 6.2 4.3 2.6 3.6 3.9 6.5 5.8 6.5 6.5 6.5 6.5 6.5 6.5 6.5 6.5 6.5 6.5 6.5 6.5 6.5 6.5 6.8 6.9 6.8 6.9 7.2 7.3 6.9
1.3 1.1 1.1 1.0 1.3 1.1 0.1 1.1 1.9 3.5 5.5 6.5 6.6 6.4 6.5 5.6 5.5 6.6 4.4 4.2 5.2 6.5 6.2 6.5 6.5 6.5 6.5 6.5 6.5 6.5 6.5 6.5 6.5 6.5 6.5 6.5 6.5 6.5 6.5 6.7 7.1 7.0 7.0 7.1 6.8
1.4 1.0 1.1 1.0 1.5 0.6 -0.2 1.0 2.5 3.3 3.8 6.3 6.4 6.3 6.3 6.1 5.7 6.0 5.7 4.9 6.2 6.5 6.5 6.5 6.5 6.5 6.5 6.5 6.5 6.5 6.5 6.5 6.5 6.5 6.5 6.5 6.5 6.5 6.5 6.7 7.1 7.3 7.3 7.5 7.6
1.4 1.2 1.5 1.6 1.8 0.4 1.2 2.3 2.8 3.1 6.5 6.5 6.0 6.4 5.8 5.3 6.0 5.9 6.5 6.1 6.2 6.5 6.5 6.5 6.3 6.5 6.5 6.5 6.5 6.5 6.5 6.5 6.5 6.5 6.5 6.5 6.5 6.5 6.5 6.5 6.5 6.9 7.0 7.3 7.6
1.3 1.5 1.5 2.3 0.2 1.0 2.4 2.7 3.1 3.3 6.5 6.5 6.3 6.9 5.8 5.5 6.4 6.5 6.1 5.3 6.5 6.5 6.5 6.5 6.5 6.5 6.5 6.5 6.5 6.5 6.5 6.5 6.5 6.5 6.5 6.5 6.5 6.5 6.5 6.5 6.5 6.6 7.1 7.1 7.7
1.3 1.7 1.7 0.4 -0.6 1.1 2.0 2.7 2.9 6.5 6.5 6.5 6.1 6.4 6.3 5.8 5.9 5.5 5.0 5.9 6.6 6.5 6.5 6.5 5.9 6.5 6.5 6.5 6.5 6.5 6.5 6.5 6.5 6.5 6.5 6.5 6.5 6.5 6.5 6.5 6.5 6.6 7.0 7.3 7.6
1.5 2.0 1.5 0.7 1.3 1.4 2.2 2.8 6.5 6.5 6.5 6.5 6.5 6.5 6.5 6.5 6.5 6.4 6.5 6.5 6.5 6.5 6.5 6.5 6.5 6.4 6.3 6.5 6.5 6.5 6.5 6.5 6.5 6.5 6.5 6.5 6.5 6.5 6.5 6.5 6.5 6.5 6.8 7.1 7.3
1.6 1.8 1.1 0.7 1.2 1.7 2.1 6.0 6.5 6.5 6.5 6.5 6.5 6.5 6.5 6.5 6.5 6.5 6.5 6.5 6.5 6.5 6.5 6.5 6.5 6.5 6.5 6.5 6.5 6.5 6.5 6.5 6.5 6.5 6.5 6.5 6.5 6.5 6.5 6.7 6.8 6.7 6.9 7.4 7.2
1.6 -0.3 0.5 0.6 1.5 1.2 2.3 6.5 6.5 6.5 6.5 6.5 6.5 6.5 6.5 6.5 6.5 6.5 6.5 6.5 6.5 6.5 6.5 6.5 6.5 6.5 6.5 6.5 6.5 6.5 6.5 6.5 6.5 6.5 6.5 6.5 6.5 6.5 6.5 6.5 6.6 6.7 6.8 6.8 7.1
0.7 1.2 1.3 1.3 1.4 0.9 5.1 6.5 6.5 6.5 6.5 6.5 6.5 6.5 6.5 6.5 6.5 6.5 6.5 6.5 6.5 6.4 5.7 6.5 6.5 6.5 6.5 6.3 6.3 6.5 6.5 6.5 6.5 6.5 6.5 6.5 6.5 6.5 6.5 6.5 6.5 6.5 6.6 6.8 6.8
1.5 3.4 2.1 1.4 0.9 -0.0 6.5 6.5 6.5 6.5 6.4 6.5 6.5 6.5 6.5 6.5 6.5 6.5 6.5 6.5 6.5 6.5 6.4 6.5 6.5 6.5 6.5 6.5 6.5 6.5 6.5 6.5 6.5 6.5 6.5 6.5 6.5 6.5 6.5 6.5 6.5 6.5 6.6 6.7 6.8
2.1 5.4 1.6 0.9 2.7 3.0 6.5 6.5 6.8 6.4 6.4 6.5 6.4 6.5 6.5 6.5 6.5 6.5 6.5 6.5 6.1 6.4 6.5 6.5 6.5 6.5 6.5 6.5 6.5 6.5 6.5 6.5 6.5 6.5 6.5 6.5 6.5 6.5 6.5 6.5 6.6 6.6 6.7 6.7 6.7
3.2 2.8 1.8 2.1 6.5 6.5 6.4 6.5 6.4 6.5 6.5 6.5 6.5 6.5 6.5 6.5 6.5 6.5 6.5 6.5 6.1 6.4 6.5 6.5 6.5 6.5 6.5 6.5 6.5 6.5 6.5 6.5 6.5 6.5 6.5 6.5 6.5 6.5 6.5 6.5 6.7 6.6 6.7 6.7 6.5
2.1 6.5 2.1 -0.3 1.6 6.1 6.5 6.5 6.5 6.3 6.4 6.4 6.5 6.3 6.5 6.5 6.5 6.5 6.5 6.5 6.3 6.4 7.3 6.2 6.5 6.5 6.5 6.5 6.5 6.5 6.5 6.5 6.5 6.5 6.5 6.5 6.5 6.5 6.5 6.5 6.6 6.8 6.7 6.6 6.6
1.9 5.1 4.4 6.5 5.6 5.8 6.0 6.5 6.5 6.5 6.4 6.4 6.5 6.5 6.5 6.5 6.5 6.5 6.5 6.5 6.5 6.8 6.2 6.3 6.5 6.5 6.5 6.5 6.5 6.5 6.5 6.5 6.5 6.5 6.5 6.5 6.5 6.5 6.5 6.5 6.6 6.7 6.7 6.7 6.7
2.3 3.6 2.6 4.5 5.4 6.0 6.5 6.5 6.5 6.5 6.5 6.5 6.5 6.5 6.5 6.5 6.5 6.5 6.5 6.5 6.5 6.0 6.5 6.1 6.5 6.5 6.5 6.5 6.5 6.5 6.5 6.5 6.5 6.5 6.5 6.5 6.5 6.4 6.7 7.1 6.8 6.6 6.7 6.7 6.7
1.4 2.1 3.4 5.6 5.7 6.5 6.5 6.5 6.5 5.7 6.4 6.2 6.1 6.5 6.5 6.5 5.4 5.6 5.3 5.3 6.1 6.5 6.5 6.5 6.5 6.5 6.5 6.5 6.5 6.5 6.5 6.5 6.5 6.5 6.5 6.5 6.5 6.5 6.5 6.8 6.8 6.8 6.6 6.7 6.6
Wind_Speed
12 14 14 14 14 14 14 12 9 8 8 8 8 9 9 10 7 5 5 8 13 18 21 8 5 5 4 1 3 3 1 6 8 10 11 10 11 16 9 7 7 5 3 5 13
12 13 13 14 13 13 13 11 8 7 8 7 8 8 9 10 2 4 13 23 18 19 8 5 6 7 3 1 2 3 3 6 6 8 11 13 12 15 6 10 7 9 6 5 12
11 13 13 14 13 13 12 9 7 6 6 7 8 10 14 1 2 4 23 24 21 19 4 4 2 2 2 3 1 1 4 5 16 14 14 13 12 7 7 11 11 9 3 7 9
11 12 13 13 13 12 11 9 6 6 7 7 9 12 8 2 3 4 22 29 29 17 5 4 3 2 3 3 2 3 9 11 12 13 11 13 10 11 7 15 5 10 2 5 7
11 12 12 13 13 12 11 9 6 6 7 7 10 13 4 6 4 16 23 28 17 6 3 2 3 1 2 4 4 4 6 8 13 19 15 13 16 10 12 15 7 12 8 8 4
10 12 12 13 14 12 11 9 7 6 6 7 11 8 5 4 6 14 19 15 7 2 2 2 2 3 3 4 1 5 10 16 10 12 8 6 5 5 9 7 12 11 7 9 5
10 12 12 14 14 13 11 9 7 6 7 7 8 3 4 4 3 17 16 13 3 1 2 3 3 2 3 7 3 7 7 10 3 6 5 3 4 4 12 6 11 10 5 10 9
11 13 14 15 14 14 12 10 7 6 7 4 6 2 1 2 10 9 9 12 2 2 3 3 3 1 1 7 7 6 4 7 10 9 5 4 5 15 22 11 8 9 7 11 5
12 13 13 15 13 14 14 10 8 8 5 3 4 2 4 11 13 5 7 7 9 6 1 1 4 3 6 4 4 5 7 7 8 8 10 6 7 21 22 22 22 13 5 5 5
11 13 13 15 14 17 10 1 3 3 4 1 3 3 6 8 7 13 19 6 4 4 4 7 5 3 4 5 5 9 6 5 6 7 11 7 11 13 21 20 18 20 18 16 18
10 11 11 13 13 15 4 3 4 5 9 4 2 3 7 9 3 19 15 7 6 9 5 5 8 8 9 5 6 6 4 6 6 4 6 8 15 14 15 22 22 20 19 18 17
9 11 10 11 9 9 5 5 1 2 5 1 1 2 5 4 5 19 13 8 8 6 8 6 4 7 8 11 7 7 5 5 10 7 6 7 15 15 13 16 14 13 16 18 19
9 10 10 12 1 6 5 2 2 1 5 2 2 3 4 4 4 12 10 6 6 6 5 1 4 10 12 11 15 10 4 3 8 14 2 3 3 20 15 15 19 21 19 19 18
9 10 12 5 4 1 2 3 2 1 5 8 7 6 8 3 5 5 7 1 7 6 7 3 6 9 17 11 11 5 1 15 13 4 3 2 2 19 17 16 24 26 23 22 23
8 7 5 4 5 3 0 2 1 2 4 6 4 3 6 8 5 12 7 6 4 6 5 4 7 8 15 12 11 8 20 8 2 2 3 6 4 8 13 21 26 23 23 21 20
5 6 2 4 3 1 2 2 3 5 3 3 4 6 5 6 7 7 9 7 2 4 4 4 6 3 5 15 7 14 5 2 2 2 3 7 1 7 15 17 21 20 23 23 22
2 6 3 2 2 2 3 3 4 5 2 5 4 6 3 6 7 8 6 11 8 8 9 9 5 7 12 8 5 18 6 4 5 5 3 4 8 2 14 16 15 17 22 21 19
3 2 5 3 3 6 3 4 5 1 1 1 3 2 4 7 4 8 4 7 6 5 3 7 8 9 10 3 8 6 4 3 1 3 4 6 3 4 15 12 16 15 19 21 24
5 2 2 3 3 3 4 5 5 3 2 2 2 5 3 3 1 4 6 5 3 3 4 7 5 6 3 4 6 8 6 3 2 2 1 3 3 3 20 19 21 21 24 25 23
3 2 1 2 4 3 5 4 2 1 3 1 3 2 4 6 5 5 4 3 5 5 2 2 6 2 6 7 7 6 5 4 3 4 5 3 3 5 22 24 24 25 24 23 22
3 2 1 1 2 5 4 3 3 2 2 2 3 2 1 1 2 1 4 3 4 6 2 2 3 7 3 6 6 6 5 5 2 1 1 3 2 4 15 18 19 19 20 20 21
3 1 1 2 4 1 3 5 4 3 2 2 3 2 3 2 2 0 2 4 6 2 4 2 2 5 5 4 4 4 5 4 2 6 2 2 2 3 13 14 14 15 18 19 19
1 1 1 2 3 2 2 3 3 3 3 3 2 1 0 2 3 2 1 2 5 5 5 2 2 4 9 6 5 5 6 5 4 1 2 1 3 3 15 16 16 16 19 18 20
2 1 3 3 1 7 6 4 3 3 2 3 4 4 4 1 2 2 1 1 4 4 9 2 2 5 5 6 2 4 7 8 1 3 4 0 10 9 19 20 20 19 18 17 16
2 2 2 1 2 5 4 5 6 4 1 2 2 3 5 2 3 1 1 4 3 7 4 4 1 1 5 7 2 2 3 6 4 1 1 6 6 7 17 17 14 13 17 18 20
4 3 3 2 3 6 3 4 6 4 5 4 3 5 5 4 5 6 4 2 1 4 4 4 1 2 3 2 2 3 5 5 2 3 2 7 8 12 16 14 12 11 16 19 19
1 2 3 1 2 3 4 6 6 8 2 2 6 5 4 2 4 3 3 3 2 4 2 3 2 3 4 4 3 3 3 2 3 1 1 3 7 14 19 19 15 10 17 16 18
Wind_Direction
3 360 1 4 2 0 1 1 6 19 23 20 17 12 6 347 332 20 353 313 341 351 347 322 340 323 326 289 160 98 107 266 265 264 270 278 287 283 265 265 273 256 241 343 334
2 358 359 359 359 359 2 0 2 11 12 6 2 355 345 338 11 4 339 337 336 341 350 322 313 332 333 311 335 136 182 257 242 250 267 276 268 279 268 270 275 284 258 12 347
359 355 357 355 355 355 359 5 358 359 359 356 348 341 336 19 62 293 340 337 324 339 316 255 256 312 331 1 285 210 230 251 276 260 266 264 270 258 250 263 249 274 325 47 354
353 355 354 353 351 353 354 358 353 357 356 349 342 339 341 75 344 293 334 330 324 332 327 330 348 45 305 314 287 291 258 264 284 279 272 265 272 270 229 248 246 260 297 69 350
348 348 353 350 346 350 349 349 341 355 2 7 1 348 63 43 299 302 327 321 323 334 326 347 23 5 312 281 313 212 270 294 286 287 280 272 262 251 248 253 243 264 235 117 287
344 345 350 347 345 346 344 340 330 328 341 7 3 3 79 65 253 317 321 327 322 313 323 228 222 240 295 268 222 265 301 293 293 296 278 272 290 152 262 263 243 249 229 137 213
341 345 345 346 347 342 344 340 338 319 316 324 348 31 71 206 246 319 330 319 257 219 251 232 185 70 315 301 299 288 310 312 321 316 299 240 312 247 277 274 257 250 227 160 194
339 346 345 347 349 340 339 331 321 320 325 332 351 63 229 277 318 335 325 333 308 245 235 269 146 114 37 311 339 344 21 349 316 337 321 12 311 13 351 355 297 230 175 150 177
340 345 344 346 350 341 331 316 298 320 303 313 39 45 346 331 350 351 4 302 298 327 222 54 58 58 358 360 355 12 309 322 310 328 337 20 348 17 8 25 10 24 37 160 189
340 344 343 348 348 344 337 297 339 43 12 12 86 26 11 317 323 345 350 353 353 351 23 39 41 57 10 27 336 316 319 300 287 313 337 32 40 29 18 24 12 9 11 14 7
337 343 341 348 351 356 26 40 25 358 32 89 160 126 287 306 8 356 344 335 12 60 20 355 38 356 325 311 279 264 262 289 278 284 348 69 44 11 20 19 12 10 3 3 4
335 340 333 343 349 18 65 77 66 196 97 346 17 270 295 335 347 359 2 41 37 20 347 9 16 317 309 332 314 313 302 307 296 338 330 90 58 33 20 18 1 5 5 2 355
333 338 332 333 15 39 77 100 317 357 95 21 33 348 331 355 42 348 8 351 47 30 10 43 291 335 343 334 349 338 239 288 295 317 244 227 73 11 11 9 6 12 4 1 359
337 338 335 7 58 115 48 317 3 58 77 335 354 1 357 328 48 23 7 13 27 9 339 287 316 353 342 349 350 306 334 314 300 321 298 349 79 21 355 1 12 7 4 354 352
342 348 23 77 139 67 354 341 5 42 35 357 345 327 355 60 298 347 345 15 54 326 16 300 322 340 347 331 324 267 323 300 237 198 323 23 69 358 0 5 359 357 358 353 342
351 358 200 32 51 58 13 56 45 44 264 27 6 3 22 20 3 319 8 24 96 5 356 277 283 297 313 301 284 325 340 19 34 62 46 326 85 11 7 349 344 348 352 350 349
13 27 47 77 140 112 91 48 32 107 354 359 346 5 57 354 354 9 3 32 39 14 12 330 338 322 356 329 317 356 22 4 14 21 6 14 55 44 358 350 345 344 348 349 348
103 91 41 44 124 122 64 51 76 240 300 28 36 1 54 10 12 349 15 21 47 66 35 15 341 358 343 15 300 328 62 102 336 351 312 24 20 148 18 0 353 350 350 351 356
129 36 36 335 139 78 83 52 194 192 112 35 63 56 353 22 93 38 17 3 27 21 80 0 284 314 308 325 2 331 34 272 283 244 280 355 337 142 360 355 355 356 359 355 352
104 90 275 304 144 77 75 154 141 78 111 64 86 21 360 344 39 43 353 316 337 46 93 327 297 315 312 351 14 63 309 20 10 26 347 357 43 314 346 356 351 352 355 346 345
79 50 174 176 84 50 116 162 134 104 119 87 143 116 102 50 90 53 272 305 355 332 67 108 119 298 3 14 2 355 16 358 293 31 145 317 342 9 357 351 345 343 343 338 343
97 319 32 151 47 38 100 135 135 137 66 90 88 110 153 152 94 333 301 198 9 30 14 307 110 290 242 306 325 92 360 15 77 326 14 265 297 38 13 343 330 335 341 342 343
167 259 353 127 140 83 127 77 68 132 149 138 126 132 93 128 71 239 314 104 19 28 13 302 358 354 347 353 23 29 6 336 268 282 38 53 315 11 358 345 347 340 346 346 340
92 312 341 53 28 127 140 146 106 6 104 119 130 108 76 107 26 185 326 43 347 3 16 92 93 150 198 223 162 2 343 342 44 53 308 271 307 338 348 342 342 344 342 341 341
65 281 317 216 318 105 96 140 133 163 66 183 90 184 151 130 2 192 17 346 31 5 27 90 119 125 271 271 246 137 317 352 34 110 189 312 309 329 340 330 332 329 335 343 345
137 141 2 62 73 94 2 205 150 156 151 216 160 160 162 148 184 210 134 157 254 345 44 358 265 45 293 172 296 194 2 6 349 350 315 308 297 350 323 323 334 336 346 342 339
119 95 125 281 100 100 194 175 182 131 331 205 156 119 166 212 154 143 126 137 159 129 339 60 19 45 273 356 10 18 294 308 283 208 264 343 295 322 326 330 334 339 348 336 333